This demonstration page uses our WeatherBlox Daily Observations layout. Learn more.

38.88101, -77.10428

Hourly Observations for August 8, 2018

Temp ( °F °C ) Dew Point ( °F °C ) Humidity (%) Winds ( mph kmh ) Pressure ( in mb ) Visibility ( mi km ) Precip ( " mm )
12:52 am 00:52 Mostly Cloudy 79 26.1 72 22.2 79 79 Calm 29.95 1014 10 16.0934 0 0
1:52 am 01:52 Mostly Cloudy 77 25 72 22.2 85 85 WNW 3 6 29.94 1014 10 16.0934 0 0
2:52 am 02:52 Mostly Cloudy 76 24.4 73 22.8 91 91 S 5 7 29.93 1014 10 16.0934 0 0
3:52 am 03:52 Mostly Cloudy 76 24.4 72 22.2 88 88 Calm 29.93 1013 10 16.0934 0 0
4:52 am 04:52 Partly Cloudy 77 25 72 22.2 85 85 Calm 29.93 1014 8 12.87472 0 0
5:52 am 05:52 Partly Cloudy with Mist and Fog 75 23.9 71 21.7 88 88 SSW 5 7 29.94 1014 6 9.65604 0 0
6:52 am 06:52 Mostly Sunny 76 24.4 71 21.7 85 85 Calm 29.95 1014 8 12.87472 0 0
7:52 am 07:52 Mostly Sunny 78 25.6 72 22.2 82 82 Calm 29.95 1014 10 16.0934 0 0
8:52 am 08:52 Sunny 80 26.7 71 21.7 74 74 SE 3 6 29.96 1015 10 16.0934 0 0
9:52 am 09:52 Mostly Sunny 83 28.3 73 22.8 72 72 SSE 3 6 29.95 1014 10 16.0934 0 0
10:52 am 10:52 Partly Cloudy 86 30 75 23.9 70 70 S 7 11 29.96 1014 10 16.0934 0 0
11:52 am 11:52 Mostly Cloudy 88 31.1 74 23.3 63 63 S 7 11 29.94 1014 10 16.0934 0 0
12:52 pm 12:52 Partly Cloudy 88 31.1 72 22.2 59 59 ESE 5 7 29.92 1013 10 16.0934 0 0
1:52 pm 13:52 Partly Cloudy 91 32.8 70 21.1 50 50 W 12 19 29.91 1013 10 16.0934 0 0
2:52 pm 14:52 Partly Cloudy 92 33.3 68 20 46 46 WNW 9 15 29.89 1012 10 16.0934 0 0
3:52 pm 15:52 Partly Cloudy 93 33.9 69 20.6 46 46 VRB 5 7 29.87 1012 10 16.0934 0 0
4:52 pm 16:52 Mostly Cloudy 94 34.4 70 21.1 46 46 W 10 17 29.85 1011 10 16.0934 0 0
5:52 pm 17:52 Mostly Cloudy 90 32.2 73 22.8 58 58 S 12 19 29.85 1011 10 16.0934 0 0
6:52 pm 18:52 Mostly Cloudy 88 31.1 71 21.7 57 57 SSW 10 17 29.84 1010 10 16.0934 0 0
7:52 pm 19:52 Mostly Cloudy 85 29.4 73 22.8 68 68 S 7 11 29.84 1010 10 16.0934 0 0
8:52 pm 20:52 Mostly Cloudy 85 29.4 73 22.8 68 68 SSW 8 13 29.85 1011 10 16.0934 0 0
9:52 pm 21:52 Mostly Cloudy with Nearby Thunderstorms 85 29.4 73 22.8 68 68 SW 8 13 29.86 1011 10 16.0934 0 0
10:03 pm 22:03 Mostly Clear with Thunderstorms 86 30 73 22.8 65 65 SW 7 11 29.85 1011 10 16.0934 0 0
10:33 pm 22:33 Mostly Clear with Nearby Thunderstorms 85 29.4 72 22.2 65 65 WSW 9 15 29.85 1011 10 16.0934 0 0
10:42 pm 22:42 Mostly Cloudy 85 29.4 72 22.2 65 65 W 9 15 29.85 1011 10 16.0934 0 0
10:52 pm 22:52 Mostly Cloudy 84 28.9 72 22.2 67 67 W 7 11 29.86 1011 10 16.0934 0 0
11:52 pm 23:52 Mostly Cloudy 81 27.2 70 21.1 69 69 NW 13 20 29.86 1011 10 16.0934 0 0

Powered by AerisWeather